Location: Proctor
(47.8934°N, 114.3048°W)
Time: 20:21:24
(UTC+00:00)

Tiros 1 despin weight - Pass Details

Date: 28 June 2024
Orbit: 576 x 620 km, 48.2° (Epoch: 19 July)

Event Time Altitude Azimuth Distance (km) Brightness Sun altitude
Rises 16:59:03 0° 214° (SSW) 2,859 ? 49.6°
Reaches altitude 10° 17:01:36 10° 202° (SSW) 1,964 ? 50.0°
Maximum altitude 17:05:23 27° 145° (SE) 1,202 ? 50.6°
Drops below altitude 10° 17:09:12 10° 88° (E) 1,986 ? 51.2°
Sets 17:11:47 0° 76° (ENE) 2,897 ? 51.6°
